TimeMST,TemperatureF,Dew PointF,Humidity,Sea Level PressureIn,VisibilityMPH,Wind Direction,Wind SpeedMPH,Gust SpeedMPH,PrecipitationIn,Events,Conditions,WindDirDegrees,DateUTC
12:53 AM,19.9,15.1,81,30.40,10.0,West,5.8,-,N/A,,Clear,280,2014-01-14 07:53:00
1:53 AM,21.0,15.1,78,30.40,10.0,West,4.6,-,N/A,,Clear,270,2014-01-14 08:53:00
2:53 AM,19.0,12.9,77,30.45,10.0,West,4.6,-,N/A,,Clear,280,2014-01-14 09:53:00
3:53 AM,17.1,10.9,77,30.45,10.0,Calm,Calm,-,N/A,,Clear,0,2014-01-14 10:53:00
4:53 AM,12.9,10.0,88,30.50,10.0,Calm,Calm,-,N/A,,Clear,0,2014-01-14 11:53:00
5:53 AM,12.0,8.1,84,30.53,10.0,NW,3.5,-,N/A,,Clear,310,2014-01-14 12:53:00
6:53 AM,16.0,12.0,84,30.54,10.0,WNW,6.9,-,N/A,,Clear,300,2014-01-14 13:53:00
7:53 AM,16.0,10.9,81,30.58,10.0,WNW,4.6,-,N/A,,Clear,300,2014-01-14 14:53:00
8:53 AM,19.9,14.0,78,30.61,10.0,West,5.8,-,N/A,,Clear,280,2014-01-14 15:53:00
9:53 AM,26.1,18.0,71,30.61,10.0,NNW,3.5,-,N/A,,Clear,340,2014-01-14 16:53:00
10:53 AM,30.9,19.0,61,30.59,10.0,Calm,Calm,-,N/A,,Clear,0,2014-01-14 17:53:00
11:53 AM,34.0,19.9,56,30.57,10.0,NE,3.5,-,N/A,,Clear,40,2014-01-14 18:53:00
12:53 PM,35.1,19.0,52,30.54,10.0,Calm,Calm,-,N/A,,Clear,0,2014-01-14 19:53:00
1:53 PM,34.0,21.9,61,30.53,10.0,South,4.6,-,N/A,,Clear,190,2014-01-14 20:53:00
2:53 PM,37.0,19.0,48,30.54,10.0,NNE,4.6,-,N/A,,Clear,20,2014-01-14 21:53:00
3:53 PM,36.0,19.9,52,30.55,10.0,Calm,Calm,-,N/A,,Clear,0,2014-01-14 22:53:00
4:53 PM,34.0,19.0,54,30.57,10.0,Calm,Calm,-,N/A,,Clear,0,2014-01-14 23:53:00
5:53 PM,28.9,19.9,69,30.61,10.0,West,6.9,-,N/A,,Clear,270,2014-01-15 00:53:00
6:53 PM,26.1,18.0,71,30.61,10.0,WNW,8.1,-,N/A,,Clear,300,2014-01-15 01:53:00
7:53 PM,21.0,15.1,78,30.65,10.0,West,6.9,-,N/A,,Clear,280,2014-01-15 02:53:00
8:53 PM,24.1,16.0,71,30.62,10.0,West,5.8,-,N/A,,Clear,280,2014-01-15 03:53:00
9:53 PM,23.0,15.1,72,30.59,10.0,NW,3.5,-,N/A,,Clear,320,2014-01-15 04:53:00
10:53 PM,19.0,14.0,81,30.60,10.0,Calm,Calm,-,N/A,,Clear,0,2014-01-15 05:53:00
11:53 PM,17.1,12.9,84,30.60,10.0,WSW,3.5,-,N/A,,Clear,250,2014-01-15 06:53:00